Forside
METAR-TAF:

METAR-TAF

Lufthavne :

Monticello Regional Airport

Monticello, Iowa, USA

Breddekreds: 42-14N, længdekreds: 091-10W, højde: 259 m

Aktuelle vejr

Denne rapport blev lavet for 25 minutter siden, kl. 08:15 UTC
Vind 7 kt fra nordnordvest
Temperatur -2°C
Fugtighed 80%
Tryk 1028 hPa
Sigt: 16.1 km
Overskyet i en højde af 9500 ft

METAR: KMXO 270815Z AUTO 33007KT 10SM OVC095 M02/M05 A3036 RMK AO2

Tid: 03:40 (08:40 UTC)


TAF: fraværende

Vejrobservationer og prognoser fra mere end 4000 lufthavne (METAR og TAF).

De gule og røde prikker repræsenterer de meteorologiske stationer.

Flyt musen over at se navnet på stationen.

Så klik over at se vejr observationer og prognoser.

At skifte det kort: Klik på de grønne knapper med et sort kors for at zoome ind; på den grønne knap med en bindestreg for at zoome ud; eller på de grønne pile for tilstødende kort.


METAR-TAF: